Weather History for Vinton, IA

Change the Weather History Date:

Wednesday, April 9, 2014

  Actual Average Record
Temperature  
Mean Temperature 49 °F -  
Max Temperature 69 °F 57 °F 78 °F (1977)
Min Temperature 29 °F 33 °F 19 °F (1982)
Degree Days  
Heating Degree Days 16    
Moisture  
Dew Point 29 °F    
Average Humidity 53    
Maximum Humidity 93    
Minimum Humidity 19    
Precipitation  
Precipitation 0.00 in - - ()
Sea Level Pressure  
Sea Level Pressure 29.90 in    
Wind  
Wind Speed 7 mph (SSW)    
Max Wind Speed 26 mph    
Max Gust Speed 33 mph    
Visibility 9 miles    
Events      
Averages and records for this station are not official NWS values.
T = Trace of Precipitation, MM = Missing Value Source: NWS Daily Summary

Daily Weather History Graph

Daily Weather History Graph

Search for Another Location

Airport:

Trip Planner

Search our weather history database for the weather conditions in past years. The results will help you decide how hot, cold, wet, or windy it might be!

Date:

Astronomy

Apr. 09, 2014 Rise Set
Actual Time 6:37 AM CDT 7:42 PM CDT
Civil Twilight 6:08 AM CDT 8:11 PM CDT
Nautical Twilight 5:34 AM CDT 8:46 PM CDT
Astronomical Twilight 4:58 AM CDT 9:22 PM CDT
Moon 2:26 PM CDT (4/9) 3:32 AM CDT (4/9)
Length of Visible Light 14h 03m
Length of Day
13h 05m
Waxing Gibbous, 72% of the Moon is Illuminated
Apr 9
Waxing Gibbous
Apr 15
Full
Apr 22
Last Quarter
Apr 29
New
May 6
First Quarter

Hourly Weather History & Observations

Time (CDT) Temp. Windchill Dew Point Humidity Pressure Visibility Wind Dir Wind Speed Gust Speed Precip Events Conditions
12:15 AM 35.4 °F 31.5 °F 30.0 °F 81% 30.02 in 10.0 mi WNW 4.6 mph - N/A   Clear
12:35 AM 34.3 °F 31.4 °F 29.8 °F 84% 30.02 in 10.0 mi WNW 3.5 mph - N/A   Clear
12:55 AM 34.3 °F 31.4 °F 29.3 °F 82% 30.02 in 10.0 mi NW 3.5 mph - N/A   Clear
1:15 AM 34.3 °F 30.2 °F 29.7 °F 83% 30.01 in 10.0 mi NW 4.6 mph - N/A   Clear
1:35 AM 34.3 °F 30.2 °F 29.8 °F 84% 30.01 in 10.0 mi WNW 4.6 mph - N/A   Clear
1:55 AM 34.3 °F 29.2 °F 30.2 °F 85% 30.01 in 10.0 mi WNW 5.8 mph - N/A   Clear
2:15 AM 34.3 °F 30.2 °F 30.6 °F 86% 30.01 in 10.0 mi WNW 4.6 mph - N/A   Clear
2:35 AM 33.8 °F 29.6 °F 30.4 °F 87% 30.01 in 10.0 mi WNW 4.6 mph - N/A   Clear
2:55 AM 34.3 °F 30.2 °F 30.9 °F 87% 30.01 in 10.0 mi WNW 4.6 mph - N/A   Clear
3:15 AM 34.3 °F - 30.6 °F 86% 30.01 in 10.0 mi Calm Calm - N/A   Clear
3:35 AM 34.3 °F - 30.6 °F 86% 30.01 in 10.0 mi Calm Calm - N/A   Clear
3:55 AM 34.3 °F - 30.2 °F 85% 30.00 in 10.0 mi Calm Calm - N/A   Clear
4:15 AM 34.3 °F - 30.6 °F 86% 30.01 in 10.0 mi Calm Calm - N/A   Clear
4:35 AM 32.0 °F - 28.2 °F 86% 30.01 in 10.0 mi Calm Calm - N/A   Clear
4:55 AM 30.7 °F - 27.5 °F 88% 30.01 in 7.0 mi Calm Calm - N/A   Clear
5:15 AM 32.0 °F 28.7 °F 29.7 °F 91% 30.01 in 5.0 mi SSW 3.5 mph - N/A   Clear
5:35 AM 29.7 °F - 27.3 °F 91% 30.02 in 2.0 mi Calm Calm - N/A   Clear
5:55 AM 29.7 °F - 27.5 °F 92% 30.02 in 4.0 mi Calm Calm - N/A   Clear
6:15 AM 29.7 °F - 27.5 °F 92% 30.02 in 4.0 mi Calm Calm - N/A   Clear
6:35 AM 29.7 °F - 27.9 °F 93% 30.03 in 5.0 mi Calm Calm - N/A   Clear
6:55 AM 29.7 °F - 27.9 °F 93% 30.03 in 3.0 mi Calm Calm - N/A   Clear
7:15 AM 29.7 °F - 27.9 °F 93% 30.03 in 2.0 mi Calm Calm - N/A   Clear
7:35 AM 29.7 °F - 27.9 °F 93% 30.04 in 3.0 mi Calm Calm - N/A   Clear
7:55 AM 32.2 °F - 30.4 °F 93% 30.04 in 5.0 mi Calm Calm - N/A   Clear
8:15 AM 34.3 °F - 31.6 °F 90% 30.04 in 7.0 mi Calm Calm - N/A   Clear
8:35 AM 36.9 °F - 31.5 °F 81% 30.04 in 10.0 mi Calm Calm - N/A   Clear
8:55 AM 39.7 °F 36.5 °F 32.4 °F 75% 30.03 in 10.0 mi SSW 4.6 mph - N/A   Clear
9:15 AM 43.2 °F 39.0 °F 32.9 °F 67% 30.02 in 10.0 mi SSW 6.9 mph - N/A   Clear
9:35 AM 49.5 °F - 35.4 °F 58% 30.02 in 10.0 mi SW 8.1 mph - N/A   Clear
9:55 AM 49.5 °F - 32.7 °F 53% 30.01 in 10.0 mi SW 11.5 mph - N/A   Clear
10:15 AM 52.0 °F - 32.2 °F 47% 30.01 in 10.0 mi SW 10.4 mph - N/A   Clear
10:35 AM 52.0 °F - 30.0 °F 43% 30.01 in 10.0 mi SSW 10.4 mph - N/A   Clear
10:55 AM 54.5 °F - 31.3 °F 41% 30.00 in 10.0 mi SW 11.5 mph 17.3 mph N/A   Clear
11:15 AM 54.5 °F - 29.7 °F 39% 29.99 in 10.0 mi SSW 15.0 mph 19.6 mph N/A   Clear
11:35 AM 55.6 °F - 29.1 °F 36% 29.97 in 10.0 mi SW 15.0 mph 18.4 mph N/A   Clear
11:55 AM 57.2 °F - 27.0 °F 31% 29.96 in 10.0 mi SW 18.4 mph 21.9 mph N/A   Clear
12:15 PM 59.5 °F - 27.7 °F 30% 29.95 in 10.0 mi SW 15.0 mph 24.2 mph N/A   Clear
12:35 PM 59.5 °F - 26.2 °F 28% 29.94 in 10.0 mi South 17.3 mph 26.5 mph N/A   Clear
12:55 PM 62.1 °F - 26.1 °F 25% 29.92 in 10.0 mi SSW 15.0 mph 20.7 mph N/A   Clear
1:15 PM 62.1 °F - 25.0 °F 24% 29.90 in 10.0 mi SSW 16.1 mph 23.0 mph N/A   Clear
1:35 PM 64.2 °F - 25.5 °F 23% 29.89 in 10.0 mi SSW 20.7 mph 24.2 mph N/A   Clear
1:55 PM 64.6 °F - 26.1 °F 23% 29.88 in 10.0 mi SSW 19.6 mph 25.3 mph N/A   Clear
2:15 PM 64.6 °F - 25.2 °F 22% 29.87 in 10.0 mi SSW 20.7 mph 26.5 mph N/A   Clear
2:35 PM 67.1 °F - 26.4 °F 22% 29.85 in 10.0 mi SSW 21.9 mph 27.6 mph N/A   Clear
2:55 PM 69.8 °F - 27.1 °F 20% 29.84 in 10.0 mi SSW 23.0 mph 28.8 mph N/A   Clear
3:15 PM 69.8 °F - 27.1 °F 20% 29.82 in 10.0 mi SSW 18.4 mph 28.8 mph N/A   Clear
3:35 PM 69.8 °F - 26.2 °F 20% 29.80 in 10.0 mi SSW 23.0 mph 28.8 mph N/A   Clear
3:55 PM 69.8 °F - 25.7 °F 19% 29.79 in 10.0 mi SSW 21.9 mph 29.9 mph N/A   Clear
4:15 PM 69.8 °F - 25.3 °F 19% 29.78 in 10.0 mi SSW 26.5 mph 33.4 mph N/A   Clear
4:35 PM 69.8 °F - 25.7 °F 19% 29.77 in 10.0 mi SSW 23.0 mph 29.9 mph N/A   Clear
4:55 PM 69.8 °F - 25.9 °F 19% 29.76 in 10.0 mi SSW 25.3 mph 32.2 mph N/A   Clear
5:15 PM 69.8 °F - 26.2 °F 20% 29.76 in 10.0 mi SW 18.4 mph 33.4 mph N/A   Clear
5:35 PM 69.8 °F - 26.8 °F 20% 29.75 in 10.0 mi SSW 23.0 mph 31.1 mph N/A   Clear
5:55 PM 69.8 °F - 28.8 °F 22% 29.75 in 10.0 mi SSW 16.1 mph 28.8 mph N/A   Clear
6:15 PM 69.8 °F - 30.2 °F 23% 29.75 in 10.0 mi SSW 18.4 mph 25.3 mph N/A   Clear
6:35 PM 67.1 °F - 29.7 °F 25% 29.75 in 10.0 mi SSW 13.8 mph - N/A   Clear
6:55 PM 67.1 °F - 29.8 °F 25% 29.75 in 10.0 mi SSW 13.8 mph 21.9 mph N/A   Clear
7:15 PM 64.8 °F - 29.1 °F 26% 29.75 in 10.0 mi South 9.2 mph 19.6 mph N/A   Clear
7:35 PM 62.8 °F - 29.1 °F 28% 29.75 in 10.0 mi South 8.1 mph - N/A   Clear
7:55 PM 60.8 °F - 29.8 °F 31% 29.75 in 10.0 mi South 8.1 mph - N/A   Clear
8:15 PM 59.7 °F - 30.6 °F 33% 29.75 in 10.0 mi South 9.2 mph - N/A   Clear
8:35 PM 57.9 °F - 31.5 °F 37% 29.75 in 10.0 mi SSE 9.2 mph - N/A   Clear
8:55 PM 58.1 °F - 31.6 °F 37% 29.74 in 10.0 mi South 10.4 mph - N/A   Clear
9:15 PM 57.2 °F - 32.2 °F 39% 29.74 in 10.0 mi South 9.2 mph - N/A   Clear
9:35 PM 57.2 °F - 32.7 °F 40% 29.74 in 10.0 mi South 9.2 mph - N/A   Clear
9:55 PM 57.2 °F - 33.1 °F 40% 29.74 in 10.0 mi South 10.4 mph - N/A   Clear
10:15 PM 54.5 °F - 32.5 °F 43% 29.73 in 10.0 mi South 9.2 mph - N/A   Clear
10:35 PM 54.5 °F - 33.1 °F 44% 29.73 in 10.0 mi South 11.5 mph - N/A   Clear
10:55 PM 54.5 °F - 32.4 °F 43% 29.72 in 10.0 mi South 12.7 mph - N/A   Clear
11:15 PM 55.8 °F - 33.3 °F 43% 29.72 in 10.0 mi South 12.7 mph - N/A   Clear
11:35 PM 57.2 °F - 34.2 °F 42% 29.71 in 10.0 mi South 12.7 mph - N/A   Clear
11:55 PM 57.2 °F - 34.0 °F 42% 29.70 in 10.0 mi South 11.5 mph 18.4 mph N/A   Clear